{"data":{"norad_id":44536,"intl_designator":"2019-060C","name":"ZHUHAI-1 03B","alt_names":[],"object_type":"PAYLOAD","status":"ACTIVE","operator":null,"country":"PRC","launch_date":"2019-09-19","launch_site_code":"JSC","launch_vehicle":null,"mission":null,"orbit_class":"UNKNOWN","rcs_meters":null,"size_class":null,"mass_kg":null,"dimensions":null,"purposes":[],"wikipedia_slug":null,"has_3d_model":false,"image_url":null,"decayed_at":null,"tle_current":{"epoch":"2026-09-20T04:34:39.486720Z","epoch_age_seconds":88360,"freshness":"FRESH","line1":"1 44536U 19060C   26263.19073480  .00027566  00000+0  35098-3 0  9992","line2":"2 44536  97.5620  66.5379 0006885 331.2241  28.8634 15.59294002391104","mean_motion":15.59294002,"eccentricity":0.0006885,"inclination_deg":97.562,"raan_deg":66.5379,"arg_perigee_deg":331.2241,"mean_anomaly_deg":28.8634,"bstar":0.00035098,"rev_number":39110,"period_min":92.349486251663,"perigee_km":385.03949363212,"apogee_km":394.35880400905,"semimajor_km":6767.8361488206,"source":"CELESTRAK","updated_at":"2026-09-20T09:00:14.532877Z"}}}